This is the latest recevied weather packets stored in our database for station/object OK4ZAW-16. If no packets are shown the sender has not sent any weather packets the latest 10 day(s).
| Time | Temp. | Humidity | Pressure | Rain* | Wind** | Luminosity | Snow |
|---|---|---|---|---|---|---|---|
| 1777483786 | -0.56° C | 57% | 1026.5 hPa | - | - | 150 W/m² | - |
| 1777483371 | -0.56° C | 55% | 1026.5 hPa | - | - | 150 W/m² | - |
| 1777482955 | 0° C | 53% | 1026.4 hPa | - | - | 150 W/m² | - |
| 1777482539 | 0° C | 52% | 1026.4 hPa | - | - | 150 W/m² | - |
| 1777482123 | 0.56° C | 51% | 1026.2 hPa | - | - | 150 W/m² | - |
| 1777481708 | 0.56° C | 50% | 1026.2 hPa | - | - | 150 W/m² | - |
| 1777481292 | 0.56° C | 49% | 1026 hPa | - | - | 150 W/m² | - |
| 1777480877 | 0.56° C | 50% | 1026.1 hPa | - | - | 150 W/m² | - |
| 1777480461 | 0.56° C | 49% | 1026 hPa | - | - | 150 W/m² | - |
| 1777480045 | 0.56° C | 49% | 1025.9 hPa | - | - | 150 W/m² | - |
| 1777479629 | 1.11° C | 49% | 1025.7 hPa | - | - | 150 W/m² | - |
| 1777479214 | 1.11° C | 47% | 1025.6 hPa | - | - | 150 W/m² | - |
| 1777478798 | 1.67° C | 45% | 1025.7 hPa | - | - | 150 W/m² | - |
| 1777478382 | 1.67° C | 44% | 1025.7 hPa | - | - | 150 W/m² | - |
| 1777477967 | 1.67° C | 43% | 1025.6 hPa | - | - | 150 W/m² | - |
| 1777477551 | 2.22° C | 42% | 1025.7 hPa | - | - | 150 W/m² | - |
| 1777477135 | 2.22° C | 41% | 1025.6 hPa | - | - | 150 W/m² | - |
| 1777476719 | 2.78° C | 39% | 1025.4 hPa | - | - | 150 W/m² | - |
| 1777476303 | 3.89° C | 37% | 1025.6 hPa | - | - | 150 W/m² | - |
| 1777475887 | 4.44° C | 35% | 1025.6 hPa | - | - | 150 W/m² | - |
| 1777475056 | 3.89° C | 36% | 1025.7 hPa | - | - | 150 W/m² | - |
| 1777474639 | 3.33° C | 36% | 1025.7 hPa | - | - | 150 W/m² | - |
| 1777474223 | 4.44° C | 33% | 1025.6 hPa | - | - | 150 W/m² | - |
| 1777473807 | 6.67° C | 31% | 1025.7 hPa | - | - | 150 W/m² | - |
| 1777473391 | 7.22° C | 31% | 1025.7 hPa | - | - | 150 W/m² | - |
* Rain since midnight (hover to see other rain measurements)
** Current wind speed in m/s (hover to see current wind gust speed)